This demonstration page uses our WeatherBlox Daily Observations layout. Learn more.

Left ArrowRight Arrow

Hourly Observations for March 23, 2018

Temp ( °F °C ) Dew Point ( °F °C ) Humidity (%) Winds ( mph kmh ) Pressure ( in mb ) Visibility ( mi km ) Precip ( " mm )
12:54 am 00:54 Clear 49 9.4 35 1.7 59 59 E 9 15 30.13 1020 10 16 0.00 0.00
1:54 am 01:54 Clear 47 8.3 35 1.7 63 63 E 10 17 30.14 1021 10 16 0.00 0.00
2:54 am 02:54 Clear 46 7.8 36 2.2 68 68 E 12 19 30.12 1020 10 16 0.00 0.00
3:54 am 03:54 Partly Cloudy 45 7.2 37 2.8 74 74 E 8 13 30.11 1020 10 16 0.00 0.00
4:54 am 04:54 Partly Cloudy 44 6.7 36 2.2 73 73 E 12 19 30.07 1018 10 16 0.00 0.00
5:54 am 05:54 Clear 43 6.1 36 2.2 76 76 E 12 19 30.06 1018 10 16 0.00 0.00
6:54 am 06:54 Clear 43 6.1 35 1.7 74 74 E 12 19 30.06 1018 10 16 0.00 0.00
7:54 am 07:54 Sunny 43 6.1 34 1.1 71 71 E 13 20 30.07 1018 10 16 0.00 0.00
8:54 am 08:54 Sunny 43 6.1 34 1.1 71 71 ESE 16 26 30.04 1017 10 16 0.00 0.00
9:54 am 09:54 Sunny 45 7.2 34 1.1 66 66 E 17 28 30.03 1017 10 16 0.00 0.00
10:54 am 10:54 Sunny 48 8.9 34 1.1 58 58 E 20 31 30.00 1016 10 16 0.00 0.00
11:54 am 11:54 Sunny 50 10 35 1.7 57 57 ESE 18 30 29.96 1015 10 16 0.00 0.00
12:54 pm 12:54 Sunny 53 11.7 36 2.2 52 52 ESE 17 28 29.93 1014 10 16 0.00 0.00
1:54 pm 13:54 Sunny 56 13.3 37 2.8 49 49 ESE 20 31 29.89 1012 9 14 0.00 0.00
2:54 pm 14:54 Mostly Cloudy 58 14.4 38 3.3 48 48 SE 23 37 29.86 1011 9 14 0.00 0.00
3:54 pm 15:54 Cloudy 57 13.9 39 3.9 51 51 ESE 18 30 29.82 1010 9 14 0.00 0.00
4:54 pm 16:54 Cloudy 54 12.2 39 3.9 57 57 ESE 21 33 29.79 1009 9 14 0.00 0.00
5:54 pm 17:54 Cloudy 54 12.2 39 3.9 57 57 E 20 31 29.80 1009 9 14 0.00 0.00
6:54 pm 18:54 Cloudy 53 11.7 40 4.4 61 61 ESE 20 31 29.78 1009 9 14 0.00 0.00
7:54 pm 19:54 Cloudy 51 10.6 41 5 69 69 ESE 16 26 29.77 1008 9 14 0.00 0.00
8:07 pm 20:07 Cloudy 50 10 41 5 71 71 ESE 17 28 29.77 1008 9 14 0.00 0.00
8:46 pm 20:46 Cloudy 49 9.4 41 5 74 74 ESE 16 26 29.80 1009 9 14 0.00 0.00
8:54 pm 20:54 Cloudy 49 9.4 41 5 74 74 E 17 28 29.78 1009 9 14 0.00 0.00
9:39 pm 21:39 Cloudy 48 8.9 41 5 77 77 E 8 13 29.83 1010 8 13 0.00 0.00
9:54 pm 21:54 Cloudy 48 8.9 42 5.6 80 80 E 12 19 29.83 1010 8 13 0.00 0.00
10:54 pm 22:54 Cloudy with Light Rain 46 7.8 43 6.1 89 89 E 14 22 29.80 1009 6 10 0.00 0.03
11:30 pm 23:30 Cloudy with Nearby Thunderstorms 46 7.8 42 5.6 86 86 E 14 22 29.77 1008 5 8 0.01 0.25
11:44 pm 23:44 Cloudy with Thunderstorms 45 7.2 42 5.6 90 90 E 15 24 29.80 1009 3 5 0.06 1.52
11:52 pm 23:52 Cloudy with Thunderstorms 45 7 43 6 93 93 E 12 19 29.80 1009 2 3 0.17 4.32
11:54 pm 23:54 Cloudy with Thunderstorms 45 7.2 42 5.6 90 90 E 7 11 29.76 1008 2 3 0.17 4.32

Powered by AerisWeather